SCP
0 0 0 0 0 0 0 0 1 1 2 2 2 2 2 2 1 1 1 1 1 2 2 1 2 2 2 2 2 1 1 1 1 1 1 1 1 1 1 1 1 1 1 1 1 1 1 1 1
0 0 0 0 0 0 0 1 1 2 2 2 2 2 2 2 2 1 1 1 2 2 2 1 2 2 2 2 2 1 1 1 1 1 1 1 1 1 1 1 1 1 1 1 1 1 1 1 1
0 0 0 0 0 0 0 1 2 3 3 3 3 3 3 2 2 2 1 1 2 2 2 2 2 2 2 2 1 1 1 1 1 1 1 1 1 1 1 1 1 1 1 0 0 0 1 1 1
0 0 0 0 0 0 0 1 2 3 4 4 3 3 3 3 3 2 2 2 2 2 2 2 2 2 2 2 2 1 1 1 1 1 1 1 1 1 1 1 1 1 1 1 1 1 1 1 1
0 0 0 0 0 0 1 1 2 3 3 4 5 5 4 4 3 3 2 2 2 3 3 2 2 2 2 2 2 2 1 1 1 1 1 1 1 1 1 1 1 1 1 1 1 1 1 1 1
0 0 0 0 0 0 1 1 2 2 3 5 6 7 6 4 3 3 2 3 3 3 3 3 2 2 2 2 2 2 2 2 1 1 1 1 1 1 1 1 1 1 1 1 1 1 1 1 1
0 0 0 0 0 1 1 1 2 3 4 5 7 8 7 5 3 3 2 3 4 4 3 3 2 2 2 2 2 2 2 2 2 1 1 1 1 1 1 1 1 1 1 1 1 1 1 1 1
0 0 0 0 1 1 1 1 3 4 5 6 8 10 9 7 4 3 3 3 4 4 4 3 3 3 2 2 2 2 2 2 2 1 1 1 1 1 1 1 1 1 1 1 1 1 1 1 1
0 0 0 1 1 1 1 2 2 4 6 8 11 12 11 9 6 4 3 4 4 5 4 4 3 3 2 2 2 2 2 2 1 1 1 1 1 1 1 1 1 1 1 1 1 1 1 1 1
0 0 1 1 1 1 2 2 2 3 6 10 12 13 12 10 7 5 4 4 5 5 5 4 4 3 3 2 2 2 2 2 1 1 1 1 1 1 1 1 2 2 2 2 1 1 1 1 1
0 1 1 1 2 2 2 2 2 3 5 8 12 13 12 10 8 6 5 5 5 5 5 4 4 3 3 3 3 2 2 2 2 1 1 1 1 1 1 2 2 2 2 2 2 2 2 2 2
1 2 2 1 2 3 3 2 2 2 3 5 9 11 10 10 9 7 7 6 5 5 5 4 4 4 4 4 3 3 2 2 2 1 1 2 2 2 2 2 2 2 3 3 2 2 2 2 2
2 3 2 1 2 3 3 3 2 2 2 4 6 8 9 9 9 8 7 8 7 6 5 5 5 5 5 5 4 3 3 2 2 2 2 2 2 2 2 2 2 2 2 3 2 2 2 2 2
2 2 2 1 2 3 4 3 3 2 3 4 6 8 9 9 8 7 7 8 8 7 5 5 6 7 7 6 5 4 3 2 2 2 2 2 2 2 2 2 2 1 2 2 2 2 2 1 1
1 1 1 1 2 2 3 3 2 2 3 4 6 9 9 8 7 6 6 7 7 7 6 6 8 9 9 8 6 5 4 3 2 2 2 2 2 2 2 1 1 1 1 1 1 1 1 1 1
1 1 1 1 1 2 2 2 2 3 4 5 6 8 7 6 5 5 5 6 7 7 7 7 10 12 12 11 9 7 5 4 3 3 2 2 2 1 1 1 1 1 1 1 1 1 1 1 1
0 0 0 1 1 1 2 2 3 4 4 5 5 6 5 4 4 5 5 6 7 7 7 7 9 13 13 12 10 8 6 4 3 2 2 2 2 2 1 1 1 1 0 0 0 0 0 0 1
0 0 0 0 1 1 2 3 5 5 4 4 4 4 4 4 5 6 6 7 7 7 6 6 8 11 11 9 8 6 5 3 2 2 2 2 2 2 2 1 1 1 0 0 0 0 0 0 0
0 0 0 0 1 1 2 4 6 5 4 4 4 5 5 5 5 6 7 8 8 7 7 7 7 7 7 6 6 5 4 3 3 2 2 2 2 2 2 1 1 0 0 0 0 0 0 0 0
0 0 0 0 1 2 2 4 5 5 4 4 5 6 6 6 5 6 7 8 8 8 8 7 6 5 5 5 4 3 3 3 2 2 2 2 2 1 1 1 1 1 0 0 0 0 0 0 0
0 0 0 0 1 1 2 3 4 4 3 4 5 6 7 7 6 6 7 8 8 8 8 6 5 4 4 4 4 3 3 2 2 2 2 1 1 1 1 1 1 1 0 0 0 0 0 0 0
0 0 0 0 1 1 1 1 2 3 3 4 6 8 8 7 6 5 6 7 7 7 6 5 4 4 4 3 4 3 3 2 2 2 2 1 0 0 0 0 0 0 0 0 0 0 0 0 0
0 0 0 0 0 0 0 0 1 2 2 3 6 9 10 8 7 6 5 6 6 6 6 5 4 3 3 3 3 3 2 2 1 1 1 1 0 0 0 0 0 0 0 0 0 0 0 0 0
0 0 0 0 0 0 0 0 1 1 1 2 5 8 8 8 8 7 6 6 6 6 6 5 4 4 3 2 2 2 2 1 1 1 1 0 0 0 0 0 0 0 0 0 0 0 0 0 0
0 0 0 0 0 0 0 0 1 1 1 2 3 4 6 8 9 8 6 6 7 7 6 6 5 4 3 2 2 2 1 1 1 0 0 0 0 0 0 0 0 0 0 0 0 0 0 0 0
0 0 0 0 0 0 0 1 1 1 2 2 2 3 4 6 8 8 6 6 7 7 7 7 6 5 3 2 1 1 1 1 1 0 0 0 0 0 0 0 0 0 0 0 0 0 0 0 0
0 0 0 0 0 0 0 1 1 1 2 3 3 4 4 4 6 7 7 7 7 8 8 7 6 5 3 2 1 1 1 1 1 1 0 0 0 0 0 0 0 0 0 0 0 0 0 0 0
0 0 0 0 0 0 0 0 1 1 2 4 5 5 4 4 5 6 7 9 10 9 8 7 6 4 3 2 1 1 1 1 1 1 1 1 0 0 0 0 0 0 0 1 0 0 0 0 0
0 0 0 0 0 0 0 0 1 1 2 4 5 5 4 3 4 5 7 9 10 10 9 7 6 4 3 2 2 1 1 1 1 1 1 0 0 0 0 0 0 1 1 1 0 0 0 0 0
0 0 0 0 0 0 0 0 1 1 2 3 4 4 4 3 3 4 5 7 9 10 9 7 6 5 4 3 2 1 1 1 1 1 1 0 0 0 0 0 0 1 1 0 0 0 0 0 0
Wind_Speed
3 3 1 3 5 3 4 6 2 2 3 4 8 10 9 7 5 6 5 14 16 14 11 14 16 16 16 15 14 13 12 12 11 11 10 10 9 8 8 7 6 6 5 5 5 4 4 4 4
2 1 3 4 4 0 6 4 2 2 5 6 8 9 9 7 8 10 8 14 17 14 10 12 17 16 16 15 14 13 12 12 11 10 9 8 8 7 6 6 5 5 4 3 3 3 3 3 2
2 1 4 4 3 5 5 2 3 5 6 5 4 6 6 7 8 7 10 17 15 12 10 13 18 16 16 15 14 13 12 11 10 9 8 8 7 6 5 5 4 3 3 2 2 2 2 1 1
1 4 4 2 6 7 5 4 1 3 5 6 7 6 5 4 6 12 17 17 15 12 10 13 18 17 16 15 14 13 12 11 10 9 8 7 6 5 4 3 3 2 2 1 1 0 0 1 2
3 4 2 2 6 6 4 5 3 3 4 6 10 7 5 4 16 19 17 16 15 11 8 11 16 16 15 14 13 12 11 10 9 8 7 6 5 4 3 2 2 2 1 1 1 1 1 2 3
4 4 2 4 7 5 3 2 4 5 7 8 10 9 4 6 16 17 16 14 14 13 10 10 15 16 15 14 13 12 11 10 9 8 6 5 4 3 3 2 2 2 2 2 2 3 3 4 4
4 3 3 4 4 5 4 1 3 6 6 6 8 8 6 7 11 14 14 14 12 12 10 8 8 11 14 13 12 11 10 9 7 6 5 5 4 3 3 3 3 3 3 4 4 4 5 5 6
5 3 2 3 3 5 2 1 2 5 4 5 6 10 9 9 10 13 12 12 11 10 9 8 6 6 6 7 11 11 10 8 7 6 5 4 3 3 4 4 4 4 4 5 5 5 6 7 7
3 3 3 4 3 3 1 1 1 4 7 4 3 7 12 16 14 14 11 10 9 9 7 7 7 6 6 5 8 8 8 7 5 4 3 2 1 1 2 3 3 4 4 5 6 6 6 6 7
5 3 7 5 3 2 2 1 2 5 6 6 8 10 14 15 14 14 13 12 10 10 8 6 7 6 6 5 4 3 3 3 2 1 1 1 1 1 1 2 3 4 4 4 5 5 5 4 2
5 6 5 4 3 2 1 1 3 8 4 7 13 15 15 14 12 12 12 11 11 10 9 7 7 6 6 3 4 2 2 2 1 1 0 1 0 0 1 1 2 2 3 2 3 3 2 2 1
3 6 5 5 4 1 1 1 3 3 6 8 14 17 16 14 13 12 13 11 9 9 8 7 7 6 5 4 3 3 2 2 1 1 1 1 1 1 1 1 1 1 1 2 2 2 2 2 2
3 5 4 3 1 2 4 4 4 3 7 10 12 14 14 12 11 10 10 10 9 9 8 7 7 6 5 5 3 4 3 3 2 1 1 2 1 1 1 1 1 1 1 1 2 2 2 3 2
3 2 2 2 1 1 5 3 4 3 9 11 12 11 12 12 11 9 9 9 8 8 8 7 7 6 6 4 4 3 3 3 2 2 2 2 2 1 1 1 1 1 1 1 1 1 2 2 2
1 1 4 2 1 2 5 4 2 7 11 11 10 10 10 8 8 8 9 9 8 7 7 7 6 6 6 5 4 4 3 3 3 2 2 3 2 2 1 1 1 1 1 2 1 2 2 2 2
3 3 2 6 1 2 6 3 5 8 11 10 10 10 9 7 7 7 8 8 8 8 7 6 7 6 5 5 4 3 3 3 3 2 2 2 2 2 1 1 1 1 1 2 1 1 2 2 2
4 1 3 6 2 2 4 5 6 7 10 10 10 10 9 8 6 5 7 8 8 7 7 6 6 5 5 4 4 4 3 3 2 2 2 2 2 2 2 1 1 1 1 1 2 2 1 2 3
3 2 3 4 4 2 3 5 6 7 9 10 10 9 9 9 7 6 6 7 7 6 6 7 6 5 5 4 3 3 3 2 2 2 2 2 1 2 2 1 2 2 1 2 2 2 2 1 3
4 2 4 5 3 2 3 5 7 8 8 9 9 9 10 9 6 6 6 7 7 6 7 6 6 5 4 3 2 2 2 1 2 1 1 2 2 2 2 1 1 1 1 1 2 1 2 2 2
2 2 4 4 3 2 2 3 5 7 9 10 11 11 11 9 8 7 6 6 6 6 5 5 5 5 4 3 2 2 2 1 1 1 1 1 2 2 1 1 1 1 1 2 2 1 1 2 1
3 3 3 3 3 4 3 3 2 2 4 4 7 8 9 11 10 8 7 6 6 6 5 4 4 4 3 3 3 3 3 2 2 1 1 1 1 1 1 1 1 1 1 1 2 1 0 2 2
4 5 3 2 2 2 1 2 6 3 4 7 7 8 9 10 9 9 8 8 7 6 6 6 5 4 3 4 4 4 3 2 1 1 1 0 1 1 1 1 1 1 0 1 2 1 1 1 2
5 3 2 1 2 1 2 1 6 1 5 7 9 10 10 11 11 10 8 8 7 6 6 5 5 4 3 4 4 4 3 2 1 1 1 1 1 1 1 1 1 1 1 1 1 2 2 1 1
2 4 5 5 5 1 4 2 5 4 6 6 8 10 11 10 9 9 8 7 6 6 6 5 5 4 4 4 4 4 4 3 3 2 1 0 1 1 2 1 1 1 1 1 2 2 2 1 1
4 6 4 6 4 4 3 1 6 5 4 7 8 9 10 9 9 9 9 9 8 7 7 6 6 5 4 4 4 3 4 4 4 3 2 1 0 1 1 1 1 1 1 1 1 1 2 2 2
1 7 6 3 3 4 3 2 4 3 1 3 5 6 8 8 9 9 10 10 9 8 7 7 7 5 4 4 3 3 3 3 2 3 3 2 2 2 2 1 1 2 2 2 1 1 2 2 2
1 1 6 6 1 1 4 3 3 3 3 4 4 4 6 8 9 9 9 9 8 8 7 8 7 5 5 4 4 3 2 2 2 2 2 2 2 1 1 1 1 2 2 2 2 1 3 2 2
3 4 5 5 3 2 4 3 4 3 3 1 3 4 6 8 9 8 8 8 7 7 6 7 7 6 5 4 4 3 3 3 2 2 1 1 1 1 1 1 2 2 2 2 2 2 3 2 3
3 3 4 3 4 5 3 6 4 6 5 5 5 6 7 8 8 8 7 7 7 6 5 6 6 5 4 4 3 3 3 3 2 2 2 1 1 1 1 2 1 2 2 2 2 2 3 3 3
2 2 5 4 3 3 3 7 4 5 4 4 3 3 5 6 6 7 7 7 6 6 5 6 5 5 5 4 4 3 3 3 2 2 2 2 1 1 1 1 1 1 2 2 2 2 2 3 3
Wind_Direction
270 245 138 69 55 44 262 252 226 357 37 53 86 99 94 85 129 141 123 134 133 136 140 136 134 133 131 129 128 126 123 121 118 115 111 107 104 102 99 95 91 87 87 89 88 83 78 73 71
267 225 70 64 90 280 268 250 191 186 139 111 82 87 84 77 89 109 121 135 134 135 137 137 135 134 133 132 130 129 128 126 124 122 119 115 112 109 107 104 99 93 88 88 86 86 79 69 57
263 142 93 87 152 194 236 236 143 130 119 100 80 58 79 109 112 120 137 137 132 132 134 140 137 135 135 135 134 133 133 132 131 130 127 124 120 117 115 112 110 106 101 97 94 88 79 57 24
71 56 58 94 244 236 225 243 172 118 80 68 90 66 60 86 117 129 136 137 131 132 134 141 139 138 137 138 138 138 138 138 137 136 134 131 129 127 129 130 131 127 127 136 148 116 63 327 313
69 81 67 284 259 262 249 238 196 168 133 116 107 91 47 42 114 128 137 137 134 133 133 140 140 140 141 141 142 142 143 142 142 141 141 142 142 145 150 158 164 173 191 209 237 260 274 283 292
51 72 101 257 271 283 269 232 129 130 121 114 111 113 94 113 126 135 136 136 136 135 135 140 143 144 144 144 145 145 146 147 148 149 153 156 160 169 178 190 207 219 236 251 258 264 272 278 283
125 113 204 240 276 290 272 313 125 136 127 136 131 111 116 132 136 135 134 133 134 135 137 139 145 147 148 149 150 150 150 150 151 155 163 172 181 194 205 223 233 243 253 262 268 271 274 275 277
154 108 281 268 259 269 263 52 91 108 121 124 127 135 151 158 142 129 127 129 131 134 140 142 142 142 144 150 154 154 154 153 155 161 169 179 198 217 227 240 243 253 266 275 279 279 280 278 279
125 79 259 247 221 245 280 62 44 71 98 88 101 130 144 143 136 127 126 127 134 138 145 147 146 146 148 152 158 157 158 159 161 168 177 184 218 250 253 266 266 272 276 282 287 288 289 287 287
125 173 237 229 200 215 266 116 126 91 84 85 86 101 126 133 137 137 143 146 148 152 157 155 154 154 155 160 148 153 159 159 160 162 189 174 179 241 256 295 289 295 293 295 306 309 306 301 297
176 203 231 255 237 212 224 41 102 122 116 149 142 138 140 139 143 147 151 153 155 157 157 162 159 157 160 155 149 155 150 148 155 141 143 111 106 348 333 351 326 331 331 315 321 317 318 313 305
236 250 233 246 255 214 220 149 79 110 164 161 147 144 144 148 155 155 153 154 149 151 157 160 161 156 155 146 150 147 141 143 142 112 97 102 91 37 21 26 18 13 346 338 333 325 319 311 310
237 260 254 245 271 135 108 94 99 94 130 136 135 140 144 149 149 145 144 148 148 151 156 160 152 147 143 137 142 138 141 142 142 121 107 108 95 56 49 32 36 12 353 341 338 336 325 318 315
225 217 258 236 199 112 114 101 89 133 131 133 141 146 149 152 154 147 144 147 154 156 157 154 148 145 140 137 136 134 136 136 126 115 106 105 104 97 74 19 7 345 338 330 314 316 317 309 306
187 28 329 307 164 173 94 48 142 162 143 143 146 148 148 149 149 151 157 148 153 159 153 150 144 134 132 133 135 129 127 121 115 107 98 102 104 104 96 44 3 337 346 3 352 340 339 333 331
15 38 322 289 211 210 117 189 205 169 152 154 152 148 148 151 147 149 151 144 148 148 142 145 139 130 128 127 122 117 114 112 108 98 90 85 84 92 85 54 356 340 10 15 357 353 341 329 321
16 358 276 296 300 164 128 181 196 181 161 158 158 156 154 147 147 143 138 141 144 142 137 130 123 129 126 118 109 107 106 107 109 98 90 77 65 72 75 45 349 12 28 7 346 356 331 317 316
256 268 289 284 302 87 132 177 189 181 165 162 163 160 158 159 163 148 130 133 134 135 136 133 126 127 119 106 95 87 88 90 92 94 97 87 66 70 70 50 13 23 22 353 349 327 328 307 303
222 247 278 279 283 87 152 182 192 173 165 163 165 163 165 164 156 139 131 131 131 137 142 140 135 132 122 118 121 116 115 112 100 97 84 75 69 68 68 49 25 22 21 327 329 326 331 316 320
247 280 287 300 312 82 145 204 188 175 186 182 176 176 169 155 148 148 145 142 146 148 142 142 137 135 142 148 143 141 136 135 132 97 58 50 68 61 69 66 43 17 14 352 349 2 344 312 338
293 223 235 258 351 37 68 343 276 220 191 182 184 174 165 164 162 164 160 159 153 149 148 143 138 132 135 126 105 93 73 60 50 50 44 5 34 45 59 65 52 6 20 331 323 332 320 295 304
261 240 194 177 78 307 102 273 278 216 203 193 191 181 176 170 167 170 164 161 158 153 150 140 135 132 131 125 129 135 137 148 192 185 161 45 23 39 51 58 58 22 350 324 314 340 285 264 297
228 211 135 116 111 17 336 170 280 223 218 213 197 191 183 175 171 171 169 165 156 144 141 139 132 133 138 134 138 139 133 144 145 119 107 54 7 359 14 35 35 11 333 317 317 319 318 279 245
166 54 32 46 65 2 264 200 268 238 217 213 203 194 183 177 170 166 162 152 143 139 139 139 142 146 149 140 139 147 145 141 136 134 141 47 345 335 335 357 7 355 332 319 312 302 305 290 275
79 78 28 4 11 265 269 211 248 254 235 204 192 190 181 171 165 164 160 160 155 153 156 155 152 153 153 145 150 157 155 156 159 168 170 166 204 275 292 331 326 325 302 298 304 312 305 292 284
200 133 150 190 231 274 312 247 263 305 275 157 165 169 167 169 168 165 168 167 164 165 166 160 157 154 154 147 150 152 160 163 170 178 174 177 190 220 249 278 290 296 303 310 303 293 288 291 284
117 143 159 138 190 305 288 283 308 354 42 87 111 141 163 170 168 167 169 166 166 171 173 164 160 157 163 165 159 149 150 157 167 173 167 175 192 212 233 258 288 299 300 294 294 296 293 292 288
132 144 91 107 142 251 279 263 242 264 258 185 158 166 176 171 167 166 167 165 166 170 168 160 161 167 171 168 164 157 159 159 154 147 174 213 215 224 265 284 298 302 304 310 317 307 304 309 303
6 51 95 113 154 165 246 266 224 207 212 202 197 181 175 168 167 162 158 156 158 156 159 160 162 161 167 168 163 155 161 156 147 155 190 212 240 263 275 277 288 304 311 320 329 309 306 308 305
151 158 139 149 223 177 192 263 258 215 206 196 199 174 164 156 154 147 144 147 153 162 169 169 170 170 174 170 163 164 162 158 159 175 205 213 240 273 278 282 294 304 316 323 329 317 313 306 305